User: anonymous   Login
Location: Luna
(33.8188°N, 108.9564°W)
Time: 02:56:33
(UTC+00:00)
Language:

PRISM - Orbit

View from above orbital plane
View from above orbital plane
View from above satellite
View from above satellite

Ground track
Ground track

The orbit data is extracted from the following two-line orbital elements,

1 33493U 09002B   24107.67731987  .00039687  00000-0  20604-2 0  9992
2 33493  98.2130 150.1339 0014340 101.2815 259.0027 15.15913362829728
Epoch (UTC): 16 April 2024 16:15:20
Eccentricity: 0.0014340
inclination: 98.2130°
perigee height: 508 km
apogee height: 528 km
right ascension of ascending node: 150.1339°
argument of perigee: 101.2815°
revolutions per day: 15.15913362
mean anomaly at epoch: 259.0027°
orbit number at epoch: 82972

The dashed part of the orbit path shows where the satellite is in the earth's shadow,  

DLR